www.pogodaiklimat.ru

Погода и климат >> Архив погоды >> Гана >> Ho


ПОГОДА в Ho

  • Прогноз погоды в Ho
  • Монитор погоды в Ho
  • Климат города

АРХИВ ПОГОДЫ в Ho

Время (UTC), дата Ветер
(напр.,м/с)
 
Видим.   Явления Облачность Т
(С)
Тd
(С)
f
(%)
Тe
(С)
Тes
(С)
Комфортность P
(гПа)
Po
(гПа)
Тmin
(С)
Tmax
(С)
R
(мм)
R24
(мм)
S
(см)
09 9.07 ЮВ 1 14 км 9/9 360 м
[Cu Sc]
+25.8 +23.5 87 +35 +36 очень
душно
1016.7 1017.0
12 9.07 СЗ 1 16 км 5/5 480 м
[Cu med, cong]
+29.4 +24.0 73 +41 +53 опасность
перегрева
1014.6 1015.0
15 9.07 СЗ 1 14 км гроза без осадков {дождь} 9/6 450 м
[Cb cap Ac trans]
+26.5 +23.8 85 +36 +39 очень
душно
1012.8 1013.0
18 9.07 ЮЗ 1 14 км {гроза, дождь} 8/4 450 м
[Cu med, cong Ac trans]
+26.5 +23.8 85 +36 +36 очень
душно
1013.1 1013.0 +29.4 4
06 10.07 штиль 0 14 км 5/0
[Ac trans]
+22.7 +22.3 98 +31 +31 очень
душно
1015.4 1015.0 +22.5 4
15 10.07 ЮЗ 1 16 км 6/6 480 м
[Cu med, cong]
+31.2 +24.3 67 +43 +48 опасность
перегрева
1012.7 1013.0
21 10.07 штиль 0 14 км {гроза} 6/6 360 м
[Sc]
+24.0 +22.9 94 +32 +32 очень
душно
1015.3 1015.0
06 11.07 штиль 0 9000 м дымка 9/9 330 м
[Sc]
+23.5 +22.5 94 +31 +31 очень
душно
1015.7 1016.0 +22.9 14
12 11.07 ЮЗ 2 14 км 6/6 480 м
[Cu med, cong]
+30.6 +24.4 70 +43 +52 опасность
перегрева
1014.8 1015.0
21 11.07 штиль 0 14 км {дождь} 5/5 360 м
[Sc]
+24.6 +23.8 95 +33 +33 очень
душно
1015.4 1015.0
00 12.07 штиль 0 14 км {дождь} 5/5 360 м
[Sc]
+24.2 +23.5 96 +33 +33 очень
душно
1016.1 1016.0 11
06 12.07 штиль 0 14 км 4/0
[Ac trans]
+23.1 +22.4 96 +32 +32 очень
душно
1015.0 1015.0 +22.7 20
21 12.07 штиль 0 10 км гроза, ливневой дождь 9/5 360 м
[Cb cap Ac As]
+24.5 +23.7 95 +33 +33 очень
душно
1016.4 1016.0
06 13.07 штиль 0 14 км 9/0
[Ac trans]
+23.4 +22.7 96 +33 +33 очень
душно
1011.4 1011.0 +23.2 3
09 13.07 ЮЗ 2 14 км 9/6 360 м
[Sc Ac trans]
+26.0 +23.2 85 +35 +38 очень
душно
1016.1 1016.0
12 13.07 ЮЗ 2 14 км 6/6 480 м
[Cu med, cong]
+29.0 +24.3 76 +41 +50 опасность
перегрева
1014.6 1015.0
15 13.07 ЮЗ 1 14 км 6/6 480 м
[Cu med, cong]
+30.0 +23.1 67 +40 +46 очень
душно
1012.4 1012.0
18 13.07 ЮЗ 1 14 км гроза без осадков 8/5 480 м
[Cb cap Ac trans]
+28.8 +24.0 75 +40 +40 очень
душно
1011.5 1012.0 +30.0
03 14.07 штиль 0 14 км {гроза} 9/6 360 м
[Sc Ac trans]
+23.5 +22.5 94 +31 +31 очень
душно
1013.6 1014.0
15 14.07 ЮЗ 1 12 км 6/6 450 м
[St Ac trans]
+30.2 +23.4 67 +41 +46 опасность
перегрева
1011.7 1012.0
21 14.07 штиль 0 14 км 9/9 360 м
[Sc]
+24.9 +23.1 90 +33 +33 очень
душно
1014.3 1014.0
00 15.07 ЮВ 1 14 км 9/9 360 м
[Sc]
+24.5 +23.4 94 +33 +33 очень
душно
1014.0 1014.0
03 15.07 штиль 0 14 км 9/9 360 м
[Sc]
+24.1 +23.3 95 +32 +32 очень
душно
1013.0 1013.0
06 15.07 штиль 0 14 км 9/5 360 м
[Sc Ac trans]
+23.6 +22.8 95 +31 +31 очень
душно
1013.3 1013.0 +23.5
21 15.07 штиль 0 14 км 8/8 360 м
[Sc]
+24.1 +22.6 91 +32 +32 очень
душно
1014.4 1014.0
00 16.07 ЮЗ 1 14 км 5/5 360 м
[Sc]
+23.5 +22.4 94 +31 +31 очень
душно
1014.7 1015.0

 

Местоположение метеостанции Ho (Гана): широта 6.60 долгота 0.47 высота над уровнем моря 158 м.

В архиве по умолчанию представлена погода в Ho за последнюю неделю. Архивные данные за месяц целиком и за предыдущие месяцы, начиная с января 2011 года, Вы можете получить, выбрав интересующий диапазон дат из раскрывающегося списка и нажав кнопку "Ввод!".


*Определитесь, кто Вы:
робот инопланетянин человек

Внимание! Время в таблицах - всемирное. Для получения местного времени необходимо прибавить поправку, которая в Ho равна 1 ч.

Смотрите также архив погоды в соседних городах и на ближайших метеорологических станциях:

Погода в Akatsi (Гана) (65 км)
Погода в Akuse (Гана) (68 км)
Погода в Ada (Гана) (93 км)
Погода в Koforidua (Гана) (98 км)
Погода в Lome (Того) (99 км)
Погода в Tabligbo (Того) (114 км)
Погода в Tema (Гана) (121 км)
Погода в Atakpame (Того) (130 км)
Погода в Accra (Гана) (132 км)
Погода в Abetifi (Гана) (135 км)

Пояснения к столбцам:

Ветер - указаны скорость ветра в м/с - средняя за 10 мин, порывы в срок и между сроками (в фигурных скобках) и направление, откуда дует ветер: С - северный, СВ - северо-восточный, В - восточный, ЮВ - юго-восточный, Ю - южный, ЮЗ - юго-западный, З - западный, СЗ - северо-западный.
Видимость - горизонтальная дальность видимости в метрах или километрах. При видимости от 1 до 10 км при отсутствии осадков обычно наблюдается дымка, при ухудшении видимости до 1 км и менее - туман. В сухую погоду видимость может ухудшаться дымом, пылью или мглою.
Явления - указаны атмосферные явления, наблюдавшиеся в срок или в последний час перед сроком; фигурными скобками обозначены явления, наблюдавшиеся между сроками (за 1-3 часа до срока); квадратными скобками обозначены град или гололедные отложения с указанием их диаметра в мм.
Облачность - указаны через наклонную черту общая и нижняя облачность в баллах и высота нижней границы облаков в метрах; квадратными скобками обозначены формы облаков: Ci - перистые, Cs - перисто-слоистые, Cc - перисто-кучевые, Ac - высококучевые, As - высокослоистые, Sc - слоисто-кучевые, Ns - слоисто-дождевые, Cu - кучевые, Cb - кучево-дождевые. Подробнее классификацию облаков см. в Атласе облаков (PDF).
T - Температура воздуха - температура, измеренная на высоте 2 м над землей.
Td - Температура точки росы - температура, при понижении до которой содержащийся в воздухе водяной пар достигнет насыщения.
f - Относительная влажность воздуха - влажноcть воздуха, измеренная на высоте 2 м над землей.
Te - Эффективная температура - температура, которую ощущает одетый по сезону человек в тени. Характеристика душности погоды. При расчете учитывается влияние влажности воздуха и скорости ветра на теплоощущения человека.
Tes - Эффективная температура на солнце - температура, которую ощущает человек, с поправкой на солнечный нагрев. Характеристика знойности погоды. Зависит от высоты солнца над горизонтом, облачности и скорости ветра. Ночью, в пасмурную погоду, а также при ветре 12 м/с и более поправка равна нулю.
P - Атмосферное давление - приведенное к уровню моря атмосферное давление.
Po - Атмосферное давление - измеренное на уровне метеостанции атмосферное давление.
Tmin - Минимальная температура - минимум температуры воздуха на высоте 2 м над землей.
Tmax - Максимальная температура - максимум температуры воздуха на высоте 2 м над землей.
R - Количество осадков - Количество выпавших осадков за период времени, мм. При наведении курсора мыши на число - период времени, за который выпало указанное количество осадков.
R24 - Количество осадков - Количество выпавших осадков за 24 часа, мм.
S - Снежный покров - Высота снежного покрова, см. При наведении курсора мыши на число - состояние снежного покрова и степень покрытия местности в баллах.